This demonstration page uses our WeatherBlox Daily Observations layout. Learn more.

38.88101, -77.10428

Hourly Observations for October 20, 2017

Temp ( °F °C ) Dew Point ( °F °C ) Humidity (%) Winds ( mph kmh ) Pressure ( in mb ) Visibility ( mi km ) Precip ( " mm )
12:52 am 00:52 Clear 59 15 51 10.6 75 75 SSW 5 7 30.17 1022 10 16.0934 0 0
1:52 am 01:52 Clear 57 13.9 51 10.6 81 81 SW 5 7 30.16 1022 10 16.0934 0 0
2:52 am 02:52 Clear 55 12.8 52 11.1 90 90 W 3 6 30.17 1022 10 16.0934 0 0
3:52 am 03:52 Clear 55 12.8 53 11.7 93 93 Calm 30.17 1022 10 16.0934 0 0
4:52 am 04:52 Clear 56 13.3 54 12.2 93 93 SSW 5 7 30.17 1022 10 16.0934 0 0
5:52 am 05:52 Clear 56 13.3 53 11.7 90 90 Calm 30.19 1022 10 16.0934 0 0
6:52 am 06:52 Mostly Cloudy 56 13.3 54 12.2 93 93 Calm 30.21 1023 10 16.0934 0 0
7:52 am 07:52 Mostly Cloudy 60 15.6 54 12.2 80 80 Calm 30.22 1023 10 16.0934 0 0
8:52 am 08:52 Mostly Cloudy 67 19.4 50 10 55 55 NW 12 19 30.24 1024 10 16.0934 0 0
9:52 am 09:52 Mostly Cloudy 69 20.6 50 10 51 51 NW 9 15 30.25 1024 10 16.0934 0 0
10:52 am 10:52 Mostly Cloudy 72 22.2 52 11.1 50 50 N 12 19 30.26 1025 10 16.0934 0 0
11:52 am 11:52 Mostly Cloudy 72 22.2 51 10.6 48 48 NW 14 22 30.26 1025 10 16.0934 0 0
12:52 pm 12:52 Mostly Cloudy 75 23.9 50 10 41 41 NW 9 15 30.24 1024 10 16.0934 0 0
1:52 pm 13:52 Mostly Cloudy 76 24.4 46 7.8 35 35 NW 13 20 30.22 1023 10 16.0934 0 0
2:52 pm 14:52 Partly Cloudy 76 24.4 45 7.2 33 33 VRB 7 11 30.2 1023 10 16.0934 0 0
3:52 pm 15:52 Partly Cloudy 76 24.4 45 7.2 33 33 WNW 5 7 30.19 1022 10 16.0934 0 0
4:52 pm 16:52 Mostly Sunny 75 23.9 46 7.8 36 36 NW 10 17 30.19 1022 10 16.0934 0 0
5:52 pm 17:52 Partly Cloudy 73 22.8 46 7.8 38 38 NW 8 13 30.19 1023 10 16.0934 0 0
6:52 pm 18:52 Partly Cloudy 71 21.7 46 7.8 41 41 WNW 6 9 30.21 1023 10 16.0934 0 0
7:52 pm 19:52 Mostly Clear 66 18.9 51 10.6 59 59 NNE 3 6 30.22 1023 10 16.0934 0 0
8:52 pm 20:52 Clear 65 18.3 54 12.2 68 68 Calm 30.22 1023 10 16.0934 0 0
9:52 pm 21:52 Clear 63 17.2 54 12.2 73 73 Calm 30.24 1024 10 16.0934 0 0
10:52 pm 22:52 Clear 60 15.6 53 11.7 78 78 N 5 7 30.24 1024 10 16.0934 0 0
11:52 pm 23:52 Clear 60 15.6 53 11.7 78 78 N 3 6 30.25 1025 10 16.0934 0 0

Powered by AerisWeather